This demonstration page uses our WeatherBlox Daily Observations layout. Learn more.

Left ArrowRight Arrow

38.20091, -84.87328

Hourly Observations for March 2, 2015

Temp ( °F °C ) Dew Point ( °F °C ) Humidity (%) Winds ( mph kmh ) Pressure ( in mb ) Visibility ( mi km ) Precip ( " mm )
12:11 am 00:11 Cloudy with Mist and Fog 33 0.6 31 -0.6 92 92 NW 9 15 30.39 1029 3 5 0.00 0.00
12:18 am 00:18 Cloudy with Mist and Fog 33 0.6 31 -0.6 92 92 WNW 7 11 30.39 1029 5 8 0.00 0.00
12:53 am 00:53 Cloudy with Mist and Fog 33 0.6 30 -1.1 89 89 NNW 13 20 30.35 1028 6 10 0.00 0.00
1:09 am 01:09 Cloudy with Mist and Fog 32 0 30 -1.1 92 92 NW 10 17 30.39 1029 5 8 0.00 0.00
1:53 am 01:53 Cloudy 32 0 29 -1.7 88 88 NW 10 17 30.37 1028 7 11 0.00 0.00
2:37 am 02:37 Cloudy 32 0 28 -2.2 85 85 NW 5 7 30.42 1030 8 13 0.00 0.00
2:51 am 02:51 Cloudy 32 0 28 -2 87 87 VRB 6 9 30.42 1030 8 13 0.00 0.00
2:53 am 02:53 Cloudy 32 0 28 -2.2 85 85 NW 6 9 30.37 1029 8 13 0.00 0.00
3:04 am 03:04 Cloudy 32 0 28 -2.2 85 85 NW 6 9 30.42 1030 8 13 0.00 0.00
3:53 am 03:53 Cloudy 31 -0.6 26 -3.3 82 82 NW 10 17 30.39 1029 9 14 0.00 0.00
4:14 am 04:14 Cloudy 31 -0.6 26 -3.3 82 82 NNW 15 24 30.45 1031 9 14 0.00 0.00
4:53 am 04:53 Cloudy 30 -1.1 25 -3.9 82 82 NNW 9 15 30.43 1031 10 16 0.00 0.00
5:20 am 05:20 Cloudy 29 -1.7 22 -5.6 75 75 NW 15 24 30.45 1031 10 16 0.00 0.00
5:53 am 05:53 Cloudy 28 -2.2 21 -6.1 75 75 N 7 11 30.47 1032 10 16 0.00 0.00
6:53 am 06:53 Mostly Cloudy 26 -3.3 19 -7.2 75 75 N 5 7 30.50 1033 10 16 0.00 0.00
7:01 am 07:01 Mostly Clear 26 -3.3 19 -7.2 75 75 N 3 6 30.50 1033 10 16 0.00 0.00
7:53 am 07:53 Sunny 26 -3.3 20 -6.7 78 78 Calm 30.52 1033 10 16 0.00 0.00
8:53 am 08:53 Sunny 27 -2.8 18 -7.8 69 69 NNW 6 9 30.53 1034 10 16 0.00 0.00
9:53 am 09:53 Sunny 28 -2.2 17 -8.3 63 63 N 3 6 30.54 1034 10 16 0.00 0.00
10:53 am 10:53 Sunny 31 -0.6 17 -8.3 56 56 NE 5 7 30.54 1034 10 16 0.00 0.00
11:53 am 11:53 Sunny 33 0.6 19 -7.2 56 56 VRB 6 9 30.53 1034 10 16 0.00 0.00
12:53 pm 12:53 Sunny 34 1.1 20 -6.7 56 56 NNE 5 7 30.51 1033 10 16 0.00 0.00
1:53 pm 13:53 Sunny 35 1.7 20 -6.7 54 54 SE 6 9 30.46 1032 10 16 0.00 0.00
2:53 pm 14:53 Sunny 36 2.2 19 -7.2 50 50 SE 5 7 30.44 1031 10 16 0.00 0.00
3:53 pm 15:53 Sunny 36 2.2 18 -7.8 48 48 Calm 30.44 1031 10 16 0.00 0.00
4:53 pm 16:53 Sunny 36 2.2 19 -7.2 50 50 undefined N/A 30.42 1030 10 16 0.00 0.00
5:53 pm 17:53 Sunny 34 1.1 19 -7.2 54 54 E 6 9 30.42 1030 10 16 0.00 0.00
6:53 pm 18:53 Clear 33 0.6 20 -6.7 58 58 E 5 7 30.43 1030 10 16 0.00 0.00
7:53 pm 19:53 Clear 32 0 20 -6.7 61 61 ENE 6 9 30.41 1030 10 16 0.00 0.00
8:53 pm 20:53 Clear 32 0 17 -8.3 54 54 ENE 8 13 30.39 1029 10 16 0.00 0.00
9:53 pm 21:53 Clear 30 -1.1 17 -8.3 58 58 E 9 15 30.36 1028 10 16 0.00 0.00
10:53 pm 22:53 Clear 29 -1.7 17 -8.3 61 61 ENE 8 13 30.35 1028 10 16 0.00 0.00
11:53 pm 23:53 Clear 27 -2.8 17 -8.3 66 66 E 6 9 30.31 1026 10 16 0.00 0.00

Powered by AerisWeather